Weather History for Kimball, NE

Change the Weather History Date:

Sunday, December 29, 2013

  Actual Average (KSNY) Record (KSNY)
Temperature  
Mean Temperature 22 °F 28 °F  
Max Temperature 36 °F 41 °F 65 °F (2011)
Min Temperature 8 °F 16 °F -17 °F (1990)
Degree Days  
Heating Degree Days 43 37  
Month to date heating degree days 1054  
Since 1 July heating degree days 2476  
Moisture  
Dew Point 9 °F    
Average Humidity 59    
Maximum Humidity 81    
Minimum Humidity 31    
Precipitation  
Precipitation 0.00 in 0.02 in 0.22 in (1951)
Month to date precipitation 0.52  
Year to date precipitation 18.52  
Sea Level Pressure  
Sea Level Pressure 30.08 in    
Wind  
Wind Speed 13 mph (WNW)    
Max Wind Speed 24 mph    
Max Gust Speed 30 mph    
Visibility 10 miles    
Events      
T = Trace of Precipitation, MM = Missing Value Source: NWS Daily Summary

Daily Weather History Graph

Daily Weather History Graph

Search for Another Location

Airport:

Trip Planner

Search our weather history database for the weather conditions in past years. The results will help you decide how hot, cold, wet, or windy it might be!

Date:

Astronomy

Dec. 29, 2013 Rise Set
Actual Time 8:19 AM CST 5:34 PM CST
Civil Twilight 7:48 AM CST 6:05 PM CST
Nautical Twilight 7:13 AM CST 6:40 PM CST
Astronomical Twilight 6:40 AM CST 7:13 PM CST
Moon 5:05 AM CST (12/29) 3:14 PM CST (12/29)
Length of Visible Light 10h 16m
Length of Day
9h 14m
Waning Crescent, 11% of the Moon is Illuminated
Dec 29
Waning Crescent
Jan 1
New
Jan 7
First Quarter
Jan 15
Full
Jan 23
Last Quarter

Hourly Weather History & Observations

Time (CST) Temp. Windchill Dew Point Humidity Pressure Visibility Wind Dir Wind Speed Gust Speed Precip Events Conditions
12:15 AM 15.8 °F -2.3 °F 8.4 °F 73% 30.17 in 10.0 mi NNW 23.0 mph 29.9 mph N/A   Overcast
12:35 AM 15.4 °F -2.0 °F 8.1 °F 73% 30.17 in 10.0 mi NNW 20.7 mph 27.6 mph N/A   Overcast
12:55 AM 14.9 °F -3.9 °F 7.3 °F 72% 30.17 in 10.0 mi NNW 24.2 mph 28.8 mph N/A   Overcast
1:15 AM 14.4 °F -3.8 °F 6.6 °F 71% 30.17 in 10.0 mi NNW 21.9 mph 25.3 mph N/A   Overcast
1:35 AM 14.4 °F -3.4 °F 6.4 °F 71% 30.17 in 10.0 mi NNW 20.7 mph 25.3 mph N/A   Overcast
1:55 AM 14.4 °F -1.5 °F 6.6 °F 71% 30.18 in 10.0 mi NNW 16.1 mph - N/A   Overcast
2:15 AM 14.0 °F -0.2 °F 6.4 °F 72% 30.18 in 10.0 mi North 12.7 mph - N/A   Mostly Cloudy
2:35 AM 13.8 °F -4.1 °F 5.9 °F 71% 30.19 in 10.0 mi NNW 20.7 mph 26.5 mph N/A   Scattered Clouds
2:55 AM 12.7 °F -4.6 °F 5.0 °F 71% 30.20 in 10.0 mi North 18.4 mph - N/A   Clear
3:15 AM 12.0 °F -4.5 °F 4.8 °F 73% 30.19 in 10.0 mi North 16.1 mph - N/A   Scattered Clouds
3:35 AM 11.5 °F -3.4 °F 4.8 °F 75% 30.20 in 10.0 mi North 12.7 mph - N/A   Scattered Clouds
3:55 AM 10.6 °F -4.5 °F 4.6 °F 77% 30.20 in 10.0 mi North 12.7 mph 17.3 mph N/A   Clear
4:15 AM 9.9 °F -2.2 °F 4.1 °F 78% 30.20 in 10.0 mi North 8.1 mph - N/A   Clear
4:35 AM 9.3 °F -0.5 °F 3.9 °F 79% 30.19 in 10.0 mi North 5.8 mph - N/A   Clear
4:55 AM 9.3 °F -3.8 °F 4.3 °F 80% 30.20 in 10.0 mi NNW 9.2 mph - N/A   Clear
5:15 AM 9.3 °F 1.0 °F 3.9 °F 79% 30.19 in 10.0 mi WNW 4.6 mph - N/A   Clear
5:35 AM 8.2 °F 1.6 °F 3.4 °F 81% 30.19 in 10.0 mi NW 3.5 mph - N/A   Clear
5:55 AM 8.1 °F -2.0 °F 3.2 °F 81% 30.18 in 10.0 mi West 5.8 mph - N/A   Clear
6:15 AM 8.4 °F -1.6 °F 3.4 °F 80% 30.18 in 10.0 mi WNW 5.8 mph - N/A   Clear
6:35 AM 8.6 °F -1.3 °F 3.4 °F 79% 30.18 in 10.0 mi WNW 5.8 mph - N/A   Clear
6:55 AM 9.3 °F 1.0 °F 3.7 °F 78% 30.17 in 10.0 mi WNW 4.6 mph - N/A   Clear
7:15 AM 8.2 °F -0.3 °F 3.0 °F 79% 30.17 in 10.0 mi West 4.6 mph - N/A   Clear
7:35 AM 9.5 °F -3.5 °F 3.7 °F 77% 30.17 in 10.0 mi West 9.2 mph - N/A   Clear
7:55 AM 8.6 °F -5.5 °F 3.4 °F 79% 30.17 in 10.0 mi West 10.4 mph - N/A   Clear
8:15 AM 9.1 °F -4.0 °F 3.7 °F 79% 30.17 in 10.0 mi West 9.2 mph - N/A   Clear
8:35 AM 9.9 °F -3.1 °F 4.1 °F 78% 30.17 in 10.0 mi West 9.2 mph - N/A   Clear
8:55 AM 11.5 °F -1.1 °F 5.5 °F 77% 30.17 in 10.0 mi West 9.2 mph - N/A   Clear
9:15 AM 12.6 °F 2.2 °F 6.1 °F 75% 30.17 in 10.0 mi West 6.9 mph - N/A   Clear
9:35 AM 15.3 °F 5.4 °F 8.1 °F 73% 30.17 in 10.0 mi WSW 6.9 mph - N/A   Clear
9:55 AM 18.9 °F 8.8 °F 10.8 °F 71% 30.17 in 10.0 mi West 8.1 mph - N/A   Clear
10:15 AM 21.9 °F 13.4 °F 11.8 °F 65% 30.17 in 10.0 mi West 6.9 mph - N/A   Clear
10:35 AM 25.5 °F 17.8 °F 12.2 °F 57% 30.17 in 10.0 mi West 6.9 mph - N/A   Clear
10:55 AM 27.1 °F 19.7 °F 12.0 °F 53% 30.17 in 10.0 mi West 6.9 mph - N/A   Clear
11:15 AM 29.1 °F 20.0 °F 12.7 °F 50% 30.16 in 10.0 mi West 10.4 mph - N/A   Clear
11:35 AM 30.6 °F 23.1 °F 12.4 °F 47% 30.14 in 10.0 mi West 8.1 mph - N/A   Clear
11:55 AM 31.3 °F 22.1 °F 11.8 °F 45% 30.13 in 10.0 mi West 11.5 mph - N/A   Clear
12:15 PM 32.0 °F 22.1 °F 11.8 °F 43% 30.13 in 10.0 mi WNW 13.8 mph - N/A   Clear
12:35 PM 33.6 °F 25.6 °F 11.7 °F 40% 30.10 in 10.0 mi West 10.4 mph 17.3 mph N/A   Clear
12:55 PM 34.3 °F 25.9 °F 10.9 °F 38% 30.09 in 10.0 mi WNW 11.5 mph 17.3 mph N/A   Clear
1:15 PM 35.1 °F 27.4 °F 10.8 °F 37% 30.09 in 10.0 mi WNW 10.4 mph 17.3 mph N/A   Clear
1:35 PM 35.4 °F 29.7 °F 11.7 °F 38% 30.08 in 10.0 mi NNW 6.9 mph 10.4 mph N/A   Clear
1:55 PM 36.1 °F 29.3 °F 10.6 °F 35% 30.08 in 10.0 mi WNW 9.2 mph - N/A   Clear
2:15 PM 36.0 °F 29.6 °F 9.5 °F 33% 30.06 in 10.0 mi North 8.1 mph - N/A   Clear
2:35 PM 36.1 °F 28.7 °F 10.2 °F 34% 30.05 in 10.0 mi NNW 10.4 mph - N/A   Clear
2:55 PM 36.1 °F 28.2 °F 7.9 °F 31% 30.03 in 10.0 mi NNW 11.5 mph - N/A   Clear
3:15 PM 36.5 °F 30.3 °F 9.0 °F 32% 30.02 in 10.0 mi North 8.1 mph - N/A   Clear
3:35 PM 36.1 °F 31.4 °F 9.3 °F 33% 30.02 in 10.0 mi WNW 5.8 mph - N/A   Clear
3:55 PM 36.0 °F 32.1 °F 10.0 °F 34% 30.02 in 10.0 mi NW 4.6 mph - N/A   Clear
4:15 PM 36.0 °F 32.1 °F 10.6 °F 35% 30.01 in 10.0 mi NNW 4.6 mph - N/A   Clear
4:35 PM 35.8 °F 33.0 °F 10.2 °F 35% 30.01 in 10.0 mi NW 3.5 mph - N/A   Clear
4:55 PM 32.9 °F 29.8 °F 10.2 °F 39% 30.00 in 10.0 mi NNW 3.5 mph - N/A   Clear
5:15 PM 31.5 °F - 11.1 °F 43% 29.99 in 10.0 mi Calm Calm - N/A   Scattered Clouds
5:35 PM 29.8 °F - 10.8 °F 45% 29.98 in 10.0 mi Calm Calm - N/A   Clear
5:55 PM 28.0 °F 24.2 °F 11.1 °F 49% 29.98 in 10.0 mi SSE 3.5 mph - N/A   Scattered Clouds
6:15 PM 25.7 °F 19.0 °F 9.5 °F 50% 29.97 in 10.0 mi SSW 5.8 mph - N/A   Clear
6:35 PM 24.4 °F 16.5 °F 9.7 °F 53% 29.96 in 10.0 mi SSW 6.9 mph - N/A   Clear
6:55 PM 25.3 °F 16.7 °F 10.8 °F 54% 29.95 in 10.0 mi SW 8.1 mph - N/A   Clear
7:15 PM 25.3 °F 15.3 °F 11.3 °F 55% 29.94 in 10.0 mi SW 10.4 mph - N/A   Clear
7:35 PM 24.8 °F 14.0 °F 11.3 °F 57% 29.92 in 10.0 mi SW 11.5 mph - N/A   Clear
7:55 PM 24.6 °F 14.4 °F 11.8 °F 58% 29.92 in 10.0 mi SW 10.4 mph - N/A   Clear
8:15 PM 25.7 °F 17.1 °F 12.7 °F 58% 29.92 in 10.0 mi SW 8.1 mph - N/A   Clear
8:35 PM 26.2 °F 17.1 °F 13.1 °F 58% 29.90 in 10.0 mi SSW 9.2 mph - N/A   Clear
8:55 PM 25.5 °F 16.9 °F 12.7 °F 58% 29.90 in 10.0 mi SSW 8.1 mph - N/A   Clear
9:15 PM 24.1 °F 16.0 °F 12.6 °F 62% 29.89 in 10.0 mi SSW 6.9 mph - N/A   Clear
9:35 PM 25.2 °F 15.7 °F 12.2 °F 58% 29.90 in 10.0 mi SW 9.2 mph - N/A   Scattered Clouds
9:55 PM 26.4 °F 17.3 °F 12.2 °F 55% 29.90 in 10.0 mi SW 9.2 mph - N/A   Overcast
10:15 PM 27.3 °F 17.7 °F 12.2 °F 53% 29.90 in 10.0 mi SW 10.4 mph - N/A   Overcast
10:35 PM 27.5 °F 18.6 °F 12.2 °F 53% 29.90 in 10.0 mi WSW 9.2 mph - N/A   Overcast
10:55 PM 28.8 °F 20.2 °F 12.2 °F 50% 29.91 in 10.0 mi West 9.2 mph - N/A   Overcast
11:15 PM 28.9 °F 21.9 °F 11.8 °F 49% 29.91 in 10.0 mi West 6.9 mph - N/A   Overcast
11:35 PM 28.4 °F 20.4 °F 12.0 °F 50% 29.91 in 10.0 mi West 8.1 mph - N/A   Overcast
11:55 PM 29.3 °F 20.2 °F 12.0 °F 49% 29.91 in 10.0 mi West 10.4 mph - N/A   Overcast